PDT,Max TemperatureF,Mean TemperatureF,Min TemperatureF,Max Dew PointF,MeanDew PointF,Min DewpointF,Max Humidity, Mean Humidity, Min Humidity, Max Sea Level PressureIn, Mean Sea Level PressureIn, Min Sea Level PressureIn, Max VisibilityMiles, Mean VisibilityMiles, Min VisibilityMiles, Max Wind SpeedMPH, Mean Wind SpeedMPH, Max Gust SpeedMPH,PrecipitationIn, CloudCover, Events, WindDirDegrees
2011-3-1,66,53,40,43,39,34,83,62,40,30.19,30.14,30.09,10,10,10,10,2,16,0.00,0,,295
2011-3-2,67,56,45,52,44,33,86,58,29,30.23,30.19,30.13,10,8,2,7,1,9,0.00,7,Rain,288
2011-3-3,68,60,51,54,52,50,100,79,58,30.20,30.15,30.10,10,7,2,9,1,15,0.03,5,Rain,265
2011-3-4,78,66,53,55,51,44,93,62,31,30.19,30.14,30.09,10,6,3,9,3,12,0.00,4,,103
2011-3-5,82,65,48,48,40,30,86,51,15,30.15,30.07,29.99,10,10,8,12,2,16,0.00,0,,289
2011-3-6,67,58,49,55,51,42,89,74,58,30.01,29.96,29.92,10,9,3,13,4,18,0.00,5,Rain,185
2011-3-7,66,60,54,54,48,24,93,71,48,29.96,29.90,29.87,10,9,2,13,6,20,0.01,5,Rain,247
2011-3-8,72,59,46,47,41,35,82,56,29,30.16,30.08,29.97,10,10,10,10,3,15,0.00,0,,115
2011-3-9,82,65,47,44,41,36,77,51,25,30.16,30.13,30.09,10,10,10,10,3,13,0.00,0,,212
2011-3-10,79,64,49,50,45,39,77,52,27,30.14,30.09,30.02,10,10,10,12,2,14,0.00,0,,235
2011-3-11,70,60,50,54,50,46,93,73,53,30.06,30.03,30.00,10,10,9,12,3,16,0.00,0,,178
2011-3-12,67,60,52,52,50,48,93,77,60,30.13,30.08,30.04,10,9,6,10,1,14,0.00,4,,195
2011-3-13,69,59,49,53,49,46,93,74,55,30.19,30.16,30.10,10,9,6,10,2,14,0.00,1,,171
2011-3-14,73,62,50,53,50,47,89,67,44,30.18,30.13,30.06,10,9,7,9,1,14,0.00,0,,210
2011-3-15,76,64,52,56,52,49,93,71,49,30.09,30.05,29.99,10,10,7,13,3,17,0.00,0,,198
2011-3-16,71,61,51,55,53,49,93,75,57,30.12,30.07,30.00,10,8,0,9,2,15,0.00,2,Fog,196
2011-3-17,73,62,51,55,48,27,93,58,22,30.09,30.05,30.01,10,9,4,8,2,13,0.00,0,,240
2011-3-18,70,59,48,49,43,25,86,53,20,30.17,30.12,30.08,10,10,9,12,5,17,0.00,0,,74
2011-3-19,63,59,54,52,45,37,89,64,39,30.14,30.06,29.99,10,10,7,13,5,17,T,4,Rain,186
2011-3-20,59,55,50,52,48,33,100,72,43,29.99,29.73,29.61,10,6,2,24,10,33,1.09,7,Rain,142
2011-3-21,59,53,46,49,45,40,93,74,55,30.09,29.90,29.70,10,8,2,15,4,20,0.31,5,Rain,213
2011-3-22,61,54,47,45,42,34,93,67,40,30.16,30.12,30.08,10,10,10,12,3,16,0.00,4,,241
2011-3-23,64,54,43,46,42,36,93,67,40,30.11,29.99,29.92,10,8,2,12,4,18,0.50,3,Rain,100
2011-3-24,61,52,42,50,44,40,96,74,51,30.09,30.06,30.00,10,9,2,14,4,17,0.16,5,Rain,138
2011-3-25,64,58,51,54,50,38,100,70,39,30.06,30.02,29.99,10,6,1,12,5,17,0.31,7,Rain,176
2011-3-26,61,55,49,50,47,42,93,72,51,30.05,30.01,29.99,10,10,6,10,3,15,0.00,7,Rain,222
2011-3-27,65,59,52,54,51,47,100,80,60,30.05,30.01,29.96,10,7,1,12,4,15,0.10,7,Rain,142
2011-3-28,66,58,49,52,50,47,93,77,60,30.04,29.99,29.94,10,10,10,12,3,16,0.00,3,,193
2011-3-29,72,60,48,55,52,46,93,73,53,30.06,30.01,29.96,10,9,5,12,2,15,0.00,0,,196
2011-3-30,84,69,54,58,54,49,100,67,33,30.07,30.02,29.97,10,7,0,10,3,13,0.00,3,Fog,244
2011-3-31,91,73,55,58,53,46,86,55,24,30.00,29.93,29.85,10,10,10,10,2,13,0.00,0,,214